KC5DAQ-22 Weather Reports


time (UTC)temp
C
wind
direction
speed
KPH
gust
KPH
rain 1hr
cm
rain 24hr
cm
rain mn
cm
humidity
%
barometer
mb
20260503200902 26 96 8.0 17.7 0.00 0.00 0.00 37 1018.3
20260503200803 26 94 3.2 17.7 0.00 0.00 0.00 38 1018.3
20260503200702 26 103 1.6 20.9 0.00 0.00 0.00 38 1018.3
20260503200602 26 244 4.8 20.9 0.00 0.00 0.00 39 1018.4
20260503200502 26 103 8.0 20.9 0.00 0.00 0.00 40 1018.4
20260503200404 26 102 8.0 20.9 0.00 0.00 0.00 39 1018.4
20260503200302 26 96 6.4 24.1 0.00 0.00 0.00 40 1018.4
20260503200203 26 107 8.0 24.1 0.00 0.00 0.00 39 1018.5
20260503200003 26 110 12.9 24.1 0.00 0.00 0.00 39 1018.4
20260503195902 26 99 14.5 24.1 0.00 0.00 0.00 38 1018.4
20260503195802 26 113 12.9 24.1 0.00 0.00 0.00 38 1018.4
20260503195702 26 104 9.7 24.1 0.00 0.00 0.00 40 1018.5
20260503195602 26 118 9.7 24.1 0.00 0.00 0.00 39 1018.5
20260503195502 26 90 11.3 24.1 0.00 0.00 0.00 37 1018.5
20260503195403 27 102 14.5 24.1 0.00 0.00 0.00 38 1018.5
20260503195304 27 99 11.3 24.1 0.00 0.00 0.00 38 1018.6
20260503195202 27 96 9.7 17.7 0.00 0.00 0.00 39 1018.5
20260503195103 27 99 8.0 16.1 0.00 0.00 0.00 38 1018.5
20260503195005 27 65 6.4 16.1 0.00 0.00 0.00 39 1018.5
20260503194902 27 100 4.8 16.1 0.00 0.00 0.00 38 1018.5
20260503194802 27 155 3.2 16.1 0.00 0.00 0.00 37 1018.5
20260503194703 27 209 3.2 16.1 0.00 0.00 0.00 40 1018.5
20260503194602 27 100 3.2 16.1 0.00 0.00 0.00 38 1018.6
20260503194503 27 97 6.4 16.1 0.00 0.00 0.00 37 1018.6
20260503194403 27 135 6.4 16.1 0.00 0.00 0.00 38 1018.6
20260503194302 27 149 4.8 16.1 0.00 0.00 0.00 39 1018.6
20260503194202 27 144 3.2 14.5 0.00 0.00 0.00 38 1018.6
20260503194102 27 99 4.8 14.5 0.00 0.00 0.00 38 1018.6
20260503194004 27 113 4.8 14.5 0.00 0.00 0.00 37 1018.6
20260503193901 27 133 4.8 14.5 0.00 0.00 0.00 37 1018.6
20260503193802 27 28 6.4 16.1 0.00 0.00 0.00 38 1018.6
20260503193703 27 49 8.0 16.1 0.00 0.00 0.00 37 1018.8
20260503193602 27 97 8.0 16.1 0.00 0.00 0.00 38 1018.8
20260503193504 27 93 6.4 16.1 0.00 0.00 0.00 39 1018.8
20260503193403 27 90 6.4 16.1 0.00 0.00 0.00 39 1018.7
20260503193302 27 93 4.8 19.3 0.00 0.00 0.00 38 1018.8
20260503193202 27 158 6.4 19.3 0.00 0.00 0.00 37 1018.7
20260503193102 27 138 4.8 19.3 0.00 0.00 0.00 38 1018.8
20260503193002 27 131 6.4 19.3 0.00 0.00 0.00 38 1018.8
20260503192902 26 87 6.4 19.3 0.00 0.00 0.00 38 1018.8
20260503192802 26 213 4.8 19.3 0.00 0.00 0.00 37 1018.8
20260503192704 27 45 4.8 19.3 0.00 0.00 0.00 37 1018.9
20260503192602 26 73 8.0 19.3 0.00 0.00 0.00 38 1018.9
20260503192502 26 71 12.9 19.3 0.00 0.00 0.00 37 1019.0
20260503192403 27 78 12.9 19.3 0.00 0.00 0.00 37 1019.0
20260503192305 27 80 11.3 16.1 0.00 0.00 0.00 36 1019.0
20260503192202 27 89 9.7 16.1 0.00 0.00 0.00 38 1019.0
20260503192102 27 162 6.4 14.5 0.00 0.00 0.00 39 1019.0
20260503192004 27 185 3.2 14.5 0.00 0.00 0.00 37 1018.9
20260503191902 27 49 1.6 14.5 0.00 0.00 0.00 37 1019.0
20260503191802 27 78 4.8 16.1 0.00 0.00 0.00 37 1019.0
20260503191702 27 166 3.2 16.1 0.00 0.00 0.00 38 1019.0
20260503191603 27 189 1.6 16.1 0.00 0.00 0.00 37 1019.0
20260503191503 26 75 3.2 16.1 0.00 0.00 0.00 38 1019.1
20260503191402 26 13 6.4 16.1 0.00 0.00 0.00 37 1019.1
20260503191303 26 23 8.0 16.1 0.00 0.00 0.00 37 1019.1
20260503191203 26 35 8.0 16.1 0.00 0.00 0.00 37 1019.2
20260503191101 27 44 8.0 17.7 0.00 0.00 0.00 36 1019.2
20260503191004 27 52 9.7 17.7 0.00 0.00 0.00 36 1019.1
20260503190904 27 89 9.7 17.7 0.00 0.00 0.00 37 1019.2
20260503190803 27 87 4.8 17.7 0.00 0.00 0.00 37 1019.2
20260503190701 27 161 4.8 17.7 0.00 0.00 0.00 37 1019.2
20260503190601 26 16 6.4 17.7 0.00 0.00 0.00 37 1019.2
20260503190502 26 78 8.0 17.7 0.00 0.00 0.00 37 1019.2
20260503190403 26 102 9.7 17.7 0.00 0.00 0.00 36 1019.2
20260503190303 27 83 11.3 17.7 0.00 0.00 0.00 37 1019.2
20260503190203 27 82 11.3 17.7 0.00 0.00 0.00 37 1019.2
20260503190004 27 110 4.8 14.5 0.00 0.00 0.00 38 1019.1
20260503185903 27 62 3.2 14.5 0.00 0.00 0.00 37 1019.2
20260503185802 27 111 1.6 14.5 0.00 0.00 0.00 37 1019.2
20260503185702 26 125 4.8 14.5 0.00 0.00 0.00 37 1019.2
20260503185603 26 97 9.7 14.5 0.00 0.00 0.00 37 1019.3
20260503185502 27 63 9.7 14.5 0.00 0.00 0.00 38 1019.2
20260503185402 26 93 6.4 11.3 0.00 0.00 0.00 38 1019.2
20260503185304 26 31 6.4 11.3 0.00 0.00 0.00 39 1019.3
20260503185203 26 96 8.0 11.3 0.00 0.00 0.00 38 1019.3
20260503185103 26 93 9.7 11.3 0.00 0.00 0.00 38 1019.2
20260503185003 26 117 8.0 11.3 0.00 0.00 0.00 38 1019.3
20260503184903 27 120 8.0 11.3 0.00 0.00 0.00 39 1019.3
20260503184802 27 213 4.8 11.3 0.00 0.00 0.00 38 1019.3
20260503184703 26 250 3.2 11.3 0.00 0.00 0.00 39 1019.3
20260503184558 26 262 6.4 11.3 0.00 0.00 0.00 38 1019.3
20260503184457 26 316 8.0 14.5 0.00 0.00 0.00 37 1019.3
20260503184355 26 240 6.4 14.5 0.00 0.00 0.00 37 1019.3
20260503184256 26 285 4.8 14.5 0.00 0.00 0.00 37 1019.4
20260503184152 26 245 4.8 14.5 0.00 0.00 0.00 37 1019.4
20260503184051 26 224 4.8 14.5 0.00 0.00 0.00 38 1019.4
20260503183950 26 245 3.2 17.7 0.00 0.00 0.00 38 1019.4
20260503183848 26 303 4.8 17.7 0.00 0.00 0.00 37 1019.5
20260503183745 26 303 6.4 17.7 0.00 0.00 0.00 37 1019.5
20260503183645 26 298 6.4 20.9 0.00 0.00 0.00 36 1019.5
20260503183543 27 265 3.2 20.9 0.00 0.00 0.00 36 1019.6
20260503183442 26 47 4.8 20.9 0.00 0.00 0.00 37 1019.5
20260503183342 26 48 6.4 20.9 0.00 0.00 0.00 38 1019.6
20260503183240 26 82 6.4 24.1 0.00 0.00 0.00 38 1019.6
20260503183139 26 100 9.7 24.1 0.00 0.00 0.00 38 1019.5
20260503183036 26 83 11.3 24.1 0.00 0.00 0.00 37 1019.6
20260503182935 26 92 11.3 24.1 0.00 0.00 0.00 37 1019.6
20260503182833 26 123 14.5 24.1 0.00 0.00 0.00 37 1019.7
20260503182732 26 104 12.9 24.1 0.00 0.00 0.00 37 1019.7
20260503182630 27 106 12.9 24.1 0.00 0.00 0.00 38 1019.7
20260503182531 27 90 14.5 24.1 0.00 0.00 0.00 36 1019.7
20260503182433 27 82 16.1 24.1 0.00 0.00 0.00 37 1019.7
20260503182331 27 93 12.9 24.1 0.00 0.00 0.00 38 1019.7
20260503182230 27 78 9.7 17.7 0.00 0.00 0.00 37 1019.6
20260503182132 27 85 9.7 16.1 0.00 0.00 0.00 37 1019.7
20260503182032 27 90 6.4 11.3 0.00 0.00 0.00 39 1019.8
20260503181930 26 31 4.8 11.3 0.00 0.00 0.00 38 1019.8
20260503181828 26 61 4.8 11.3 0.00 0.00 0.00 37 1019.7
20260503181728 26 31 3.2 11.3 0.00 0.00 0.00 37 1019.8
20260503181624 26 63 3.2 16.1 0.00 0.00 0.00 37 1019.8
20260503181525 26 59 6.4 19.3 0.00 0.00 0.00 37 1019.8
20260503181422 26 68 8.0 19.3 0.00 0.00 0.00 37 1019.8
20260503181321 26 96 4.8 19.3 0.00 0.00 0.00 38 1019.9
20260503181221 26 255 1.6 19.3 0.00 0.00 0.00 38 1019.8
20260503181117 26 230 0.0 19.3 0.00 0.00 0.00 37 1019.9
20260503181017 26 234 0.0 19.3 0.00 0.00 0.00 36 1019.9
20260503180914 26 214 4.8 19.3 0.00 0.00 0.00 37 1019.9
20260503180813 26 83 6.4 19.3 0.00 0.00 0.00 37 1019.9
20260503180712 26 90 9.7 19.3 0.00 0.00 0.00 37 1019.9
20260503180610 26 0 9.7 19.3 0.00 0.00 0.00 38 1020.0
20260503180510 26 109 8.0 16.1 0.00 0.00 0.00 37 1019.9
20260503180409 26 85 11.3 16.1 0.00 0.00 0.00 37 1019.9
20260503180308 26 96 8.0 16.1 0.00 0.00 0.00 39 1020.0
20260503180205 26 31 4.8 14.5 0.00 0.00 0.00 37 1019.9
20260503180107 26 80 8.0 14.5 0.00 0.00 0.00 37 1020.0
20260503180004 26 109 9.7 14.5 0.00 0.00 0.00 37 1020.0
20260503175906 26 94 6.4 14.5 0.00 0.00 0.00 37 1020.1
20260503175805 26 117 3.2 11.3 0.00 0.00 0.00 38 1020.1
20260503175703 26 145 3.2 9.7 0.00 0.00 0.00 37 1020.0
20260503175605 26 128 4.8 9.7 0.00 0.00 0.00 39 1020.1
20260503175504 26 131 3.2 9.7 0.00 0.00 0.00 37 1020.1
20260503175404 26 110 4.8 9.7 0.00 0.00 0.00 38 1020.2
20260503175304 26 89 3.2 9.7 0.00 0.00 0.00 37 1020.2
20260503175205 26 66 3.2 9.7 0.00 0.00 0.00 37 1020.2
20260503175105 26 66 3.2 11.3 0.00 0.00 0.00 37 1020.2
20260503175004 26 66 4.8 11.3 0.00 0.00 0.00 37 1020.2
20260503174904 26 66 6.4 11.3 0.00 0.00 0.00 37 1020.3
20260503174804 26 85 6.4 11.3 0.00 0.00 0.00 37 1020.3
20260503174704 26 93 6.4 16.1 0.00 0.00 0.00 37 1020.4
20260503174604 26 82 4.8 16.1 0.00 0.00 0.00 38 1020.4
20260503174505 26 168 4.8 16.1 0.00 0.00 0.00 38 1020.4
20260503174404 26 168 4.8 16.1 0.00 0.00 0.00 38 1020.3
20260503174304 26 114 6.4 16.1 0.00 0.00 0.00 40 1020.5
20260503174204 26 128 9.7 16.1 0.00 0.00 0.00 39 1020.4
20260503174105 26 87 9.7 16.1 0.00 0.00 0.00 37 1020.5
20260503174003 26 89 8.0 16.1 0.00 0.00 0.00 39 1020.5
20260503173904 26 182 8.0 16.1 0.00 0.00 0.00 39 1020.5
20260503173803 26 186 6.4 16.1 0.00 0.00 0.00 40 1020.6
20260503173704 26 183 6.4 11.3 0.00 0.00 0.00 40 1020.6
20260503173603 25 190 4.8 11.3 0.00 0.00 0.00 40 1020.6
20260503173505 25 103 3.2 11.3 0.00 0.00 0.00 39 1020.6
20260503173404 26 238 3.2 11.3 0.00 0.00 0.00 39 1020.6
20260503173304 26 221 4.8 11.3 0.00 0.00 0.00 40 1020.6
20260503173204 26 107 6.4 11.3 0.00 0.00 0.00 39 1020.6
20260503173104 26 185 4.8 11.3 0.00 0.00 0.00 40 1020.6
20260503173004 26 210 3.2 11.3 0.00 0.00 0.00 40 1020.7
20260503172903 26 28 3.2 11.3 0.00 0.00 0.00 39 1020.7
20260503172804 26 28 3.2 11.3 0.00 0.00 0.00 39 1020.8
20260503172704 26 16 3.2 11.3 0.00 0.00 0.00 39 1020.7
20260503172604 26 66 3.2 11.3 0.00 0.00 0.00 39 1020.7
20260503172503 26 72 6.4 14.5 0.00 0.00 0.00 39 1020.8
20260503172404 26 113 6.4 14.5 0.00 0.00 0.00 40 1020.8
20260503172305 26 85 3.2 14.5 0.00 0.00 0.00 42 1020.8
20260503172202 26 144 3.2 14.5 0.00 0.00 0.00 42 1020.8
20260503172101 25 193 4.8 16.1 0.00 0.00 0.00 41 1020.8
20260503172003 25 207 4.8 16.1 0.00 0.00 0.00 41 1020.9
20260503171901 25 106 4.8 16.1 0.00 0.00 0.00 40 1020.9
20260503171800 25 89 6.4 16.1 0.00 0.00 0.00 40 1020.9
20260503171658 26 120 9.7 16.1 0.00 0.00 0.00 40 1020.9
20260503171553 26 114 11.3 16.1 0.00 0.00 0.00 40 1021.0
20260503171453 26 118 9.7 16.1 0.00 0.00 0.00 40 1020.9
20260503171354 26 113 8.0 16.1 0.00 0.00 0.00 42 1020.9
20260503171252 26 168 9.7 16.1 0.00 0.00 0.00 41 1020.8
20260503171151 26 144 9.7 16.1 0.00 0.00 0.00 42 1020.8
20260503171048 26 186 6.4 16.1 0.00 0.00 0.00 42 1020.9
20260503170946 26 62 4.8 16.1 0.00 0.00 0.00 41 1020.8
20260503170846 26 121 8.0 16.1 0.00 0.00 0.00 41 1020.9
20260503170744 26 117 6.4 16.1 0.00 0.00 0.00 40 1020.8
20260503170643 26 80 4.8 9.7 0.00 0.00 0.00 41 1020.8
20260503170541 26 82 3.2 6.4 0.00 0.00 0.00 42 1020.8
20260503170440 26 247 3.2 6.4 0.00 0.00 0.00 41 1020.9
20260503170339 26 219 1.6 8.0 0.00 0.00 0.00 40 1020.8
20260503170238 26 11 0.0 8.0 0.00 0.00 0.00 39 1020.9
20260503170136 26 11 0.0 8.0 0.00 0.00 0.00 40 1020.9
20260503160159 25 96 1.6 14.5 0.00 0.00 0.00 42 1021.1
20260503151009 23 207 6.4 16.1 0.00 0.00 0.00 52 1020.9
20260503150906 23 189 6.4 16.1 0.00 0.00 0.00 52 1020.9
20260503150804 23 199 8.0 16.1 0.00 0.00 0.00 51 1020.9
20260503150703 23 182 6.4 17.7 0.00 0.00 0.00 54 1020.9
20260503150603 23 154 3.2 17.7 0.00 0.00 0.00 55 1020.8
20260503150502 23 169 4.8 17.7 0.00 0.00 0.00 54 1020.8
20260503150403 23 203 6.4 17.7 0.00 0.00 0.00 53 1020.8
20260503150303 23 145 8.0 17.7 0.00 0.00 0.00 53 1020.8
20260503150202 23 189 4.8 17.7 0.00 0.00 0.00 55 1020.8
20260503140302 20 56 0.0 4.8 0.00 0.00 0.00 70 1020.7
20260503140200 20 51 0.0 3.2 0.00 0.00 0.00 71 1020.7
20260503131358 17 13 0.0 4.8 0.00 0.00 0.00 83 1020.5
20260503131258 17 13 0.0 4.8 0.00 0.00 0.00 83 1020.5
20260503131157 17 13 0.0 4.8 0.00 0.00 0.00 84 1020.4
20260503131058 17 13 1.6 4.8 0.00 0.00 0.00 84 1020.5
20260503130958 17 13 1.6 4.8 0.00 0.00 0.00 85 1020.4
20260503130859 17 13 1.6 4.8 0.00 0.00 0.00 85 1020.4
20260503130758 16 13 1.6 4.8 0.00 0.00 0.00 85 1020.4
20260503130658 16 13 1.6 4.8 0.00 0.00 0.00 85 1020.5
20260503130557 16 13 3.2 4.8 0.00 0.00 0.00 86 1020.4
20260503130458 16 13 3.2 4.8 0.00 0.00 0.00 86 1020.3
20260503130359 16 13 3.2 4.8 0.00 0.00 0.00 87 1020.4
20260503130258 16 13 1.6 4.8 0.00 0.00 0.00 87 1020.4
20260503130157 16 13 1.6 4.8 0.00 0.00 0.00 87 1020.3
20260503120157 13 13 0.0 0.0 0.00 0.00 0.00 93 1019.9
20260503110754 13 11 0.0 3.2 0.00 0.00 0.00 92 1019.4
20260503110654 13 11 0.0 3.2 0.00 0.00 0.00 92 1019.4
20260503110556 13 11 0.0 3.2 0.00 0.00 0.00 92 1019.5
20260503110456 13 11 1.6 3.2 0.00 0.00 0.00 92 1019.5
20260503110355 13 11 1.6 3.2 0.00 0.00 0.00 92 1019.4
20260503110255 13 11 1.6 3.2 0.00 0.00 0.00 92 1019.5
20260503110154 13 7 0.0 0.0 0.00 0.00 0.00 92 1019.5
20260503100257 13 7 0.0 0.0 0.00 0.00 0.00 91 1019.1
20260503100156 13 7 0.0 0.0 0.00 0.00 0.00 91 1019.0
20260503090454 13 8 0.0 0.0 0.00 0.00 0.00 89 1018.8
20260503090352 13 7 0.0 0.0 0.00 0.00 0.00 89 1018.9
20260503090251 13 7 0.0 0.0 0.00 0.00 0.00 89 1018.9
20260503090152 13 7 0.0 0.0 0.00 0.00 0.00 90 1018.9
20260503081550 14 7 0.0 0.0 0.00 0.00 0.00 87 1018.9
20260503081450 15 7 0.0 0.0 0.00 0.00 0.00 87 1019.1
20260503081350 15 7 0.0 0.0 0.00 0.00 0.00 88 1019.1
20260503081252 15 7 0.0 0.0 0.00 0.00 0.00 87 1019.0
20260503081151 15 7 0.0 0.0 0.00 0.00 0.00 87 1019.1
20260503081050 15 7 0.0 0.0 0.00 0.00 0.00 87 1019.1
20260503080951 15 7 0.0 0.0 0.00 0.00 0.00 87 1019.1
20260503080852 15 7 0.0 0.0 0.00 0.00 0.00 87 1019.1
20260503080750 15 7 0.0 0.0 0.00 0.00 0.00 87 1019.1
20260503080651 15 7 0.0 0.0 0.00 0.00 0.00 86 1019.1
20260503080551 15 7 0.0 0.0 0.00 0.00 0.00 87 1019.0
20260503080451 15 7 0.0 0.0 0.00 0.00 0.00 87 1019.0
20260503080350 15 7 0.0 0.0 0.00 0.00 0.00 87 1019.0
20260503080250 15 7 0.0 0.0 0.00 0.00 0.00 87 1019.0
20260503080150 15 7 0.0 0.0 0.00 0.00 0.00 87 1019.0
20260503072924 15 7 0.0 0.0 0.00 0.00 0.00 84 1018.9
20260503072823 15 7 0.0 0.0 0.00 0.00 0.00 84 1018.9
20260503072720 15 7 0.0 0.0 0.00 0.00 0.00 84 1018.9
20260503072617 15 7 0.0 0.0 0.00 0.00 0.00 84 1018.8
20260503072516 15 7 0.0 0.0 0.00 0.00 0.00 85 1018.9
20260503072414 15 7 0.0 0.0 0.00 0.00 0.00 84 1018.9
20260503072314 15 7 0.0 0.0 0.00 0.00 0.00 84 1018.9
20260503072212 15 7 0.0 0.0 0.00 0.00 0.00 84 1018.9
20260503072111 15 7 0.0 0.0 0.00 0.00 0.00 85 1019.0
20260503072010 15 7 0.0 0.0 0.00 0.00 0.00 85 1019.0
20260503071909 15 7 0.0 0.0 0.00 0.00 0.00 85 1018.9
20260503071806 15 7 0.0 0.0 0.00 0.00 0.00 85 1018.9
20260503071702 15 7 0.0 0.0 0.00 0.00 0.00 85 1018.9
20260503071605 15 7 0.0 0.0 0.00 0.00 0.00 85 1019.0
20260503071505 15 7 0.0 0.0 0.00 0.00 0.00 86 1019.0
20260503071402 15 7 0.0 0.0 0.00 0.00 0.00 86 1019.0
20260503071303 15 7 0.0 0.0 0.00 0.00 0.00 86 1018.9
20260503071204 15 7 0.0 0.0 0.00 0.00 0.00 86 1019.0
20260503071102 15 7 0.0 0.0 0.00 0.00 0.00 85 1019.0
20260503071002 15 7 0.0 0.0 0.00 0.00 0.00 85 1019.0
20260503070904 15 7 0.0 0.0 0.00 0.00 0.00 85 1019.0
20260503070802 15 7 0.0 0.0 0.00 0.00 0.00 86 1019.0
20260503070702 15 7 0.0 0.0 0.00 0.00 0.00 86 1019.0
20260503070604 15 7 0.0 0.0 0.00 0.00 0.00 86 1019.1
20260503070504 15 7 0.0 0.0 0.00 0.00 0.00 86 1019.0
20260503070402 15 7 0.0 0.0 0.00 0.00 0.00 86 1019.1
20260503070302 15 7 0.0 0.0 0.00 0.00 0.00 86 1019.1
20260503070204 15 7 0.0 0.0 0.00 0.00 0.00 86 1019.0
20260503060303 15 8 0.0 0.0 0.00 0.00 0.00 84 1019.1
20260503060204 15 8 0.0 0.0 0.00 0.00 0.00 84 1019.1
20260503055102 15 8 0.0 3.2 0.00 0.00 0.00 84 1019.3
20260503055004 15 8 0.0 3.2 0.00 0.00 0.00 84 1019.3
20260503054902 16 8 0.0 3.2 0.00 0.00 0.00 84 1019.3
20260503054802 16 8 1.6 3.2 0.00 0.00 0.00 84 1019.3
20260503054703 16 8 1.6 3.2 0.00 0.00 0.00 84 1019.2
20260503054602 16 8 1.6 3.2 0.00 0.00 0.00 83 1019.2
20260503054502 16 8 1.6 3.2 0.00 0.00 0.00 84 1019.2
20260503054403 16 8 3.2 3.2 0.00 0.00 0.00 83 1019.2
20260503054303 16 8 1.6 3.2 0.00 0.00 0.00 84 1019.1
20260503054202 16 8 1.6 3.2 0.00 0.00 0.00 84 1019.2
20260503054103 16 8 1.6 3.2 0.00 0.00 0.00 84 1019.1
20260503054005 16 8 3.2 3.2 0.00 0.00 0.00 83 1019.0
20260503053902 16 8 1.6 3.2 0.00 0.00 0.00 83 1019.1
20260503053804 16 8 0.0 0.0 0.00 0.00 0.00 83 1019.0
20260503053704 16 8 0.0 0.0 0.00 0.00 0.00 83 1019.0
20260503053603 16 8 0.0 0.0 0.00 0.00 0.00 84 1019.0
20260503053503 16 8 0.0 0.0 0.00 0.00 0.00 84 1018.9
20260503053403 16 8 0.0 0.0 0.00 0.00 0.00 83 1019.0
20260503053303 16 8 0.0 0.0 0.00 0.00 0.00 84 1019.0
20260503053202 16 8 0.0 0.0 0.00 0.00 0.00 84 1018.9
20260503053102 16 8 0.0 0.0 0.00 0.00 0.00 84 1018.9
20260503053003 16 8 0.0 1.6 0.00 0.00 0.00 84 1018.9
20260503052902 16 8 0.0 1.6 0.00 0.00 0.00 84 1018.9
20260503052802 16 8 0.0 3.2 0.00 0.00 0.00 84 1018.9
20260503052702 16 8 0.0 3.2 0.00 0.00 0.00 84 1018.9
20260503052602 16 8 0.0 3.2 0.00 0.00 0.00 84 1018.9
20260503052502 16 8 0.0 3.2 0.00 0.00 0.00 84 1018.9
20260503052403 16 8 0.0 3.2 0.00 0.00 0.00 84 1019.0
20260503052305 16 8 0.0 3.2 0.00 0.00 0.00 84 1019.0
20260503052203 16 8 0.0 3.2 0.00 0.00 0.00 84 1019.0
20260503052102 16 8 1.6 3.2 0.00 0.00 0.00 84 1019.0
20260503052002 16 8 1.6 3.2 0.00 0.00 0.00 84 1019.0
20260503051904 16 8 3.2 3.2 0.00 0.00 0.00 84 1019.0
20260503051802 16 8 1.6 3.2 0.00 0.00 0.00 84 1019.0
20260503051702 16 8 1.6 3.2 0.00 0.00 0.00 83 1018.9
20260503051603 16 8 1.6 3.2 0.00 0.00 0.00 83 1019.0
20260503051502 16 8 1.6 3.2 0.00 0.00 0.00 83 1019.0
20260503051403 16 8 1.6 3.2 0.00 0.00 0.00 83 1019.0
20260503051302 16 8 1.6 3.2 0.00 0.00 0.00 83 1019.0
20260503051203 16 8 0.0 0.0 0.00 0.00 0.00 82 1019.0
20260503051103 16 8 0.0 0.0 0.00 0.00 0.00 82 1019.0
20260503050948 16 8 0.0 0.0 0.00 0.00 0.00 82 1019.0
20260503050847 16 8 0.0 0.0 0.00 0.00 0.00 82 1019.1
20260503050746 16 8 0.0 0.0 0.00 0.00 0.00 82 1018.9
20260503050646 16 8 0.0 0.0 0.00 0.00 0.00 81 1018.9
20260503050548 16 8 0.0 0.0 0.00 0.00 0.00 82 1018.9
20260503050448 16 8 0.0 0.0 0.00 0.00 0.00 82 1018.9
20260503050346 16 8 0.0 0.0 0.00 0.00 0.00 82 1018.9
20260503050246 16 8 0.0 0.0 0.00 0.00 0.00 81 1018.9
20260503050148 16 8 0.0 0.0 0.00 0.00 0.00 81 1018.9
20260503050046 16 8 0.0 0.0 0.00 0.00 0.00 81 1018.9
20260503045946 16 8 0.0 0.0 0.00 0.00 0.00 81 1018.8
20260503045847 16 8 0.0 0.0 0.00 0.00 0.00 81 1018.9
20260503045747 16 8 0.0 0.0 0.00 0.00 0.00 81 1018.9
20260503045647 16 8 0.0 0.0 0.00 0.00 0.00 81 1018.9
20260503045546 16 8 0.0 0.0 0.00 0.00 0.00 81 1018.9
20260503045444 16 8 0.0 0.0 0.00 0.00 0.00 80 1018.8
20260503045341 16 8 0.0 0.0 0.00 0.00 0.00 80 1018.9
20260503045239 16 8 0.0 0.0 0.00 0.00 0.00 80 1018.8
20260503045137 16 8 0.0 0.0 0.00 0.00 0.00 80 1018.8
20260503045037 16 8 0.0 0.0 0.00 0.00 0.00 80 1018.8
20260503044934 16 8 0.0 0.0 0.00 0.00 0.00 79 1018.7
20260503044833 16 8 0.0 0.0 0.00 0.00 0.00 79 1018.8
20260503044732 16 8 0.0 0.0 0.00 0.00 0.00 79 1018.7
20260503044631 16 8 0.0 0.0 0.00 0.00 0.00 78 1018.7
20260503044532 16 8 0.0 0.0 0.00 0.00 0.00 78 1018.8
20260503044431 16 8 0.0 0.0 0.00 0.00 0.00 78 1018.7
20260503044332 16 8 0.0 0.0 0.00 0.00 0.00 78 1018.7
20260503044231 16 8 0.0 0.0 0.00 0.00 0.00 79 1018.7
20260503044133 16 8 0.0 0.0 0.00 0.00 0.00 79 1018.7
20260503044033 16 8 0.0 0.0 0.00 0.00 0.00 79 1018.7
20260503043930 16 8 0.0 0.0 0.00 0.00 0.00 78 1018.7
20260503043831 16 8 0.0 0.0 0.00 0.00 0.00 78 1018.7
20260503043731 16 8 0.0 0.0 0.00 0.00 0.00 78 1018.7
20260503043631 16 8 0.0 0.0 0.00 0.00 0.00 79 1018.6
20260503043531 16 8 0.0 0.0 0.00 0.00 0.00 78 1018.6
20260503043432 16 8 0.0 0.0 0.00 0.00 0.00 78 1018.6
20260503043331 16 8 0.0 0.0 0.00 0.00 0.00 78 1018.6
20260503043231 16 8 0.0 0.0 0.00 0.00 0.00 78 1018.6
20260503043133 16 8 0.0 0.0 0.00 0.00 0.00 78 1018.7
20260503043031 16 8 0.0 1.6 0.00 0.00 0.00 77 1018.7
20260503042931 16 8 0.0 1.6 0.00 0.00 0.00 77 1018.7
20260503042830 17 8 0.0 1.6 0.00 0.00 0.00 76 1018.6
20260503042732 17 8 0.0 1.6 0.00 0.00 0.00 76 1018.7
20260503042631 17 8 0.0 1.6 0.00 0.00 0.00 75 1018.6
20260503042531 17 8 0.0 1.6 0.00 0.00 0.00 75 1018.7
20260503042433 17 8 0.0 1.6 0.00 0.00 0.00 74 1018.7
20260503042332 17 8 0.0 1.6 0.00 0.00 0.00 74 1018.7
20260503042232 17 8 0.0 1.6 0.00 0.00 0.00 73 1018.7
20260503042132 17 8 0.0 1.6 0.00 0.00 0.00 72 1018.7
20260503042032 17 8 0.0 0.0 0.00 0.00 0.00 73 1018.7
20260503041929 17 8 0.0 0.0 0.00 0.00 0.00 73 1018.7
20260503041828 17 8 0.0 0.0 0.00 0.00 0.00 73 1018.8
20260503041727 17 8 0.0 0.0 0.00 0.00 0.00 74 1018.8
20260503041626 17 8 0.0 0.0 0.00 0.00 0.00 74 1018.8
20260503041524 17 8 0.0 0.0 0.00 0.00 0.00 74 1018.8
20260503041422 17 8 0.0 0.0 0.00 0.00 0.00 75 1018.8
20260503041321 17 8 0.0 0.0 0.00 0.00 0.00 75 1018.8
20260503041220 17 8 0.0 0.0 0.00 0.00 0.00 76 1018.9
20260503041118 17 8 0.0 0.0 0.00 0.00 0.00 76 1018.8
20260503041017 17 8 0.0 0.0 0.00 0.00 0.00 76 1018.8
20260503040914 16 8 0.0 0.0 0.00 0.00 0.00 76 1018.9
20260503040814 17 8 0.0 0.0 0.00 0.00 0.00 76 1018.8
20260503040712 17 8 0.0 0.0 0.00 0.00 0.00 76 1018.8
20260503040610 17 8 0.0 0.0 0.00 0.00 0.00 76 1018.8
20260503040510 17 8 0.0 0.0 0.00 0.00 0.00 74 1018.9
20260503040403 17 8 0.0 0.0 0.00 0.00 0.00 73 1018.9
20260503040304 17 8 0.0 0.0 0.00 0.00 0.00 73 1018.8
20260503040203 17 8 0.0 0.0 0.00 0.00 0.00 73 1018.8
20260503040104 17 8 0.0 0.0 0.00 0.00 0.00 73 1018.7
20260503040004 17 8 0.0 0.0 0.00 0.00 0.00 73 1018.7
20260503035902 17 8 0.0 0.0 0.00 0.00 0.00 73 1018.7
20260503035803 17 8 0.0 0.0 0.00 0.00 0.00 72 1018.8
20260503035703 17 8 0.0 0.0 0.00 0.00 0.00 73 1018.7
20260503035603 17 8 0.0 0.0 0.00 0.00 0.00 72 1018.8
20260503035504 17 8 0.0 0.0 0.00 0.00 0.00 72 1018.7
20260503035405 17 8 0.0 0.0 0.00 0.00 0.00 72 1018.7
20260503035304 17 8 0.0 0.0 0.00 0.00 0.00 72 1018.7
20260503035202 17 8 0.0 0.0 0.00 0.00 0.00 72 1018.7
20260503035103 17 8 0.0 0.0 0.00 0.00 0.00 73 1018.6
20260503035003 17 8 0.0 0.0 0.00 0.00 0.00 73 1018.5
20260503034903 17 8 0.0 0.0 0.00 0.00 0.00 73 1018.6
20260503034804 17 8 0.0 0.0 0.00 0.00 0.00 73 1018.6
20260503034702 17 8 0.0 0.0 0.00 0.00 0.00 73 1018.5
20260503034602 17 8 0.0 0.0 0.00 0.00 0.00 73 1018.4
20260503034501 17 8 0.0 0.0 0.00 0.00 0.00 74 1018.5
20260503034403 17 8 0.0 0.0 0.00 0.00 0.00 74 1018.4
20260503034302 17 8 0.0 0.0 0.00 0.00 0.00 75 1018.4
20260503034203 17 8 0.0 1.6 0.00 0.00 0.00 76 1018.4
20260503034103 17 8 0.0 3.2 0.00 0.00 0.00 75 1018.4
20260503034004 17 8 0.0 3.2 0.00 0.00 0.00 75 1018.4
20260503033902 17 8 0.0 3.2 0.00 0.00 0.00 75 1018.4
20260503033802 17 8 0.0 3.2 0.00 0.00 0.00 75 1018.3
20260503033702 17 8 0.0 3.2 0.00 0.00 0.00 75 1018.4
20260503033603 17 8 0.0 3.2 0.00 0.00 0.00 76 1018.4
20260503033502 17 8 0.0 3.2 0.00 0.00 0.00 76 1018.4
20260503033402 17 8 0.0 3.2 0.00 0.00 0.00 75 1018.3
20260503033302 17 8 0.0 3.2 0.00 0.00 0.00 75 1018.3
20260503033202 17 8 1.6 3.2 0.00 0.00 0.00 75 1018.3
20260503033102 17 8 1.6 3.2 0.00 0.00 0.00 76 1018.2
20260503033004 17 8 1.6 3.2 0.00 0.00 0.00 76 1018.2
20260503032902 17 8 1.6 3.2 0.00 0.00 0.00 76 1018.2
20260503032802 17 8 1.6 3.2 0.00 0.00 0.00 76 1018.2
20260503032704 17 8 1.6 3.2 0.00 0.00 0.00 76 1018.2
20260503032603 17 8 3.2 3.2 0.00 0.00 0.00 76 1018.2
20260503032503 17 8 3.2 3.2 0.00 0.00 0.00 76 1018.2
20260503032403 17 8 3.2 3.2 0.00 0.00 0.00 75 1018.2
20260503032304 17 8 3.2 3.2 0.00 0.00 0.00 75 1018.1
20260503032202 17 8 1.6 3.2 0.00 0.00 0.00 75 1018.2
20260503032102 17 8 1.6 3.2 0.00 0.00 0.00 75 1018.2
20260503032004 17 8 3.2 3.2 0.00 0.00 0.00 75 1018.1
20260503031903 17 8 1.6 3.2 0.00 0.00 0.00 75 1018.2
20260503031803 17 8 0.0 3.2 0.00 0.00 0.00 75 1018.2
20260503031703 17 8 0.0 0.0 0.00 0.00 0.00 75 1018.2
20260503031603 17 8 0.0 0.0 0.00 0.00 0.00 75 1018.2
20260503031503 17 8 0.0 0.0 0.00 0.00 0.00 74 1018.1
20260503031402 17 8 0.0 0.0 0.00 0.00 0.00 74 1018.1
20260503031304 17 8 0.0 0.0 0.00 0.00 0.00 74 1018.1
20260503031159 17 8 0.0 0.0 0.00 0.00 0.00 74 1018.2
20260503031059 17 8 0.0 0.0 0.00 0.00 0.00 74 1018.1
20260503030957 17 8 0.0 1.6 0.00 0.00 0.00 74 1018.1
20260503030858 17 8 0.0 3.2 0.00 0.00 0.00 74 1018.1
20260503030755 17 8 0.0 3.2 0.00 0.00 0.00 74 1018.1
20260503030654 17 8 0.0 3.2 0.00 0.03 0.00 75 1018.1
20260503030553 17 8 0.0 3.2 0.00 0.03 0.00 75 1018.1
20260503030451 17 8 0.0 3.2 0.00 0.03 0.00 75 1018.1
20260503030349 17 8 0.0 3.2 0.00 0.03 0.00 75 1018.2
20260503030248 17 8 0.0 3.2 0.00 0.03 0.00 75 1018.2
20260503030147 17 8 0.0 3.2 0.00 0.03 0.00 74 1018.2
20260503030045 17 8 1.6 3.2 0.00 0.03 0.00 73 1018.2
20260503025944 17 8 1.6 3.2 0.00 0.03 0.00 73 1018.2
20260503025843 17 8 1.6 3.2 0.00 0.03 0.00 73 1018.2
20260503025815 17 7 1.6 3.2 0.00 0.03 0.00 73 1018.2
20260503025645 17 7 0.0 3.2 0.00 0.03 0.00 73 1018.2
20260503025545 17 7 0.0 3.2 0.00 0.03 0.00 73 1018.2
20260503025444 17 7 0.0 3.2 0.00 0.03 0.00 73 1018.1
20260503025344 17 7 0.0 3.2 0.00 0.03 0.00 73 1018.2
20260503025243 17 7 0.0 3.2 0.00 0.03 0.00 73 1018.1
20260503025143 17 7 0.0 3.2 0.00 0.03 0.00 73 1018.1
20260503025043 17 7 1.6 3.2 0.00 0.03 0.00 73 1018.1
20260503024945 17 7 1.6 3.2 0.00 0.03 0.00 73 1018.2
20260503024843 17 7 1.6 3.2 0.00 0.03 0.00 73 1018.1
20260503024744 17 7 1.6 3.2 0.00 0.03 0.00 73 1018.1
20260503024644 17 7 3.2 3.2 0.00 0.03 0.00 72 1018.1
20260503024543 17 7 1.6 3.2 0.00 0.03 0.00 72 1018.1
20260503024444 18 7 1.6 3.2 0.00 0.03 0.00 72 1018.1
20260503024345 18 7 1.6 3.2 0.00 0.03 0.00 72 1018.1
20260503024244 18 8 1.6 3.2 0.00 0.03 0.00 72 1018.1
20260503024143 18 8 1.6 3.2 0.00 0.03 0.00 72 1018.1
20260503024043 18 8 1.6 3.2 0.00 0.03 0.00 70 1018.1
20260503023944 18 8 0.0 3.2 0.00 0.03 0.00 70 1018.1
20260503023844 18 8 0.0 3.2 0.00 0.03 0.00 70 1018.1
20260503023743 18 8 1.6 3.2 0.00 0.03 0.00 70 1018.1
20260503023646 18 8 1.6 3.2 0.00 0.03 0.00 69 1018.0
20260503023544 18 8 3.2 3.2 0.00 0.03 0.00 69 1018.1
20260503023442 18 8 1.6 3.2 0.00 0.03 0.00 70 1018.1
20260503023343 18 8 1.6 3.2 0.00 0.03 0.00 70 1018.0
20260503023245 18 8 1.6 3.2 0.00 0.05 0.00 69 1018.0
20260503023144 18 8 1.6 3.2 0.00 0.05 0.00 69 1018.0
20260503023043 18 8 1.6 3.2 0.00 0.05 0.00 69 1018.0
20260503022944 18 8 1.6 4.8 0.00 0.05 0.00 69 1018.0
20260503022844 18 8 1.6 4.8 0.00 0.05 0.00 68 1017.9
20260503022743 18 8 1.6 4.8 0.00 0.05 0.00 68 1017.9
20260503022644 18 8 1.6 4.8 0.00 0.05 0.00 69 1017.8
20260503022545 18 8 1.6 4.8 0.00 0.05 0.00 68 1017.9
20260503022444 18 8 1.6 4.8 0.00 0.05 0.00 69 1017.8
20260503022343 18 8 1.6 4.8 0.00 0.05 0.00 69 1017.8
20260503022243 18 8 3.2 4.8 0.00 0.05 0.00 69 1017.9
20260503022143 18 8 3.2 4.8 0.00 0.05 0.00 68 1017.9
20260503022044 18 8 3.2 4.8 0.00 0.05 0.00 68 1017.9
20260503021943 18 8 1.6 3.2 0.00 0.05 0.00 70 1017.8
20260503021842 18 8 0.0 0.0 0.00 0.05 0.00 69 1017.9
20260503021744 18 8 0.0 0.0 0.00 0.05 0.00 69 1017.9
20260503021642 18 8 0.0 0.0 0.00 0.05 0.00 69 1017.9
20260503021544 18 8 0.0 0.0 0.00 0.05 0.00 68 1017.9
20260503021442 18 8 0.0 0.0 0.00 0.05 0.00 68 1017.8
20260503021343 18 8 0.0 0.0 0.00 0.05 0.00 68 1017.8
20260503021242 18 8 0.0 0.0 0.00 0.08 0.00 68 1018.0
20260503021143 18 8 0.0 0.0 0.00 0.08 0.00 68 1017.9
20260503021044 19 8 0.0 0.0 0.00 0.08 0.00 69 1017.9
20260503020942 19 8 0.0 0.0 0.00 0.08 0.00 68 1017.9
20260503020843 19 8 0.0 0.0 0.00 0.08 0.00 68 1017.9
20260503020743 19 8 0.0 0.0 0.00 0.08 0.00 68 1017.8
20260503020644 19 8 0.0 0.0 0.00 0.08 0.00 68 1017.9
20260503020542 19 8 0.0 1.6 0.00 0.08 0.00 68 1017.8
20260503020444 19 8 0.0 1.6 0.00 0.08 0.00 68 1017.8
20260503020342 19 8 0.0 1.6 0.00 0.08 0.00 67 1017.8
20260503020243 19 8 0.0 3.2 0.00 0.08 0.00 65 1017.7
20260503020143 19 8 0.0 3.2 0.00 0.08 0.00 66 1017.8
20260503020044 19 8 0.0 3.2 0.00 0.08 0.00 66 1017.7
20260503015942 19 8 0.0 3.2 0.00 0.08 0.00 66 1017.7
20260503015843 19 8 0.0 3.2 0.00 0.08 0.00 65 1017.7
20260503015743 20 8 0.0 3.2 0.00 0.08 0.00 66 1017.7
20260503015643 20 8 0.0 4.8 0.00 0.08 0.00 65 1017.7
20260503015542 20 8 0.0 4.8 0.00 0.08 0.00 65 1017.6
20260503015444 20 8 0.0 4.8 0.00 0.08 0.00 64 1017.7
20260503015342 20 8 0.0 4.8 0.00 0.08 0.00 63 1017.6
20260503015244 20 8 0.0 4.8 0.00 0.08 0.00 63 1017.6
20260503015143 20 8 1.6 4.8 0.00 0.08 0.00 62 1017.5
20260503015042 20 8 3.2 4.8 0.00 0.08 0.00 63 1017.5
20260503014942 20 8 1.6 4.8 0.00 0.10 0.00 61 1017.5
20260503014843 20 8 1.6 4.8 0.00 0.10 0.00 61 1017.5
20260503014743 20 8 3.2 4.8 0.00 0.10 0.00 61 1017.5
20260503014641 20 8 3.2 6.4 0.00 0.10 0.00 60 1017.4
20260503014542 20 8 3.2 6.4 0.00 0.10 0.00 60 1017.4
20260503014443 20 8 3.2 6.4 0.00 0.10 0.00 59 1017.4
20260503014342 20 7 3.2 6.4 0.00 0.10 0.00 59 1017.4
20260503014242 20 7 3.2 6.4 0.00 0.10 0.00 59 1017.4
20260503014141 20 7 3.2 6.4 0.00 0.10 0.00 59 1017.3
20260503014039 20 7 3.2 6.4 0.00 0.10 0.00 59 1017.3
20260503013938 20 7 3.2 6.4 0.00 0.10 0.00 59 1017.3
20260503013835 20 7 4.8 6.4 0.00 0.10 0.00 59 1017.3
20260503013734 20 7 4.8 6.4 0.00 0.10 0.00 59 1017.2
20260503013634 20 0 3.2 4.8 0.00 0.13 0.00 60 1017.3
20260503013530 20 0 3.2 4.8 0.00 0.13 0.00 61 1017.2
20260503013431 20 0 3.2 4.8 0.00 0.13 0.00 60 1017.2
20260503013331 20 0 3.2 4.8 0.00 0.15 0.00 60 1017.3
20260503013231 20 0 3.2 4.8 0.00 0.15 0.00 60 1017.3
20260503013131 20 0 1.6 4.8 0.00 0.15 0.00 60 1017.2
20260503013032 20 0 1.6 4.8 0.00 0.15 0.00 59 1017.2
20260503012931 20 0 1.6 4.8 0.00 0.15 0.00 59 1017.1
20260503012832 20 0 1.6 4.8 0.00 0.15 0.00 59 1017.2
20260503012730 20 0 3.2 4.8 0.00 0.18 0.00 58 1017.2
20260503012632 20 0 3.2 4.8 0.00 0.18 0.00 57 1017.2
20260503012531 21 0 3.2 4.8 0.00 0.18 0.00 56 1017.2
20260503012432 21 0 3.2 4.8 0.00 0.18 0.00 57 1017.1
20260503012333 21 0 3.2 4.8 0.00 0.20 0.00 56 1017.1
20260503012232 21 0 3.2 4.8 0.00 0.20 0.00 57 1017.1
20260503012131 21 0 3.2 4.8 0.00 0.20 0.00 57 1017.1
20260503012031 21 0 3.2 6.4 0.00 0.20 0.00 56 1017.1
20260503011932 21 0 3.2 6.4 0.00 0.20 0.00 56 1017.1
20260503011832 21 0 3.2 6.4 0.00 0.23 0.00 56 1017.1
20260503011731 21 0 3.2 6.4 0.00 0.23 0.00 56 1017.2
20260503011633 21 0 3.2 6.4 0.00 0.23 0.00 56 1017.2
20260503011532 21 0 3.2 6.4 0.00 0.23 0.00 56 1017.2
20260503011432 21 0 3.2 6.4 0.00 0.23 0.00 55 1017.2
20260503011307 21 0 3.2 6.4 0.00 0.23 0.00 55 1017.2
20260503011205 21 0 4.8 6.4 0.00 0.23 0.00 55 1017.1
20260503011104 21 0 4.8 8.0 0.00 0.23 0.00 54 1017.2
20260503011004 21 0 3.2 8.0 0.00 0.23 0.00 54 1017.2
20260503010903 21 0 3.2 8.0 0.00 0.23 0.00 54 1017.2
20260503010804 21 6 3.2 8.0 0.00 0.23 0.00 54 1017.1
20260503010703 21 4 4.8 8.0 0.00 0.23 0.00 54 1017.1
20260503010602 21 10 3.2 9.7 0.00 0.23 0.00 54 1017.1
20260503010502 21 28 3.2 9.7 0.00 0.25 0.00 54 1017.2
20260503010402 21 28 3.2 9.7 0.00 0.25 0.00 53 1017.1
20260503010302 21 28 4.8 9.7 0.00 0.25 0.00 53 1017.0
20260503010202 21 28 4.8 9.7 0.00 0.25 0.00 53 1017.0
20260503010002 21 18 4.8 9.7 0.00 0.25 0.00 53 1017.0
20260503005856 21 18 4.8 9.7 0.00 0.25 0.00 53 1017.0
20260503005755 21 21 6.4 9.7 0.00 0.25 0.00 53 1017.0
20260503005654 21 11 6.4 9.7 0.00 0.25 0.00 53 1017.0
20260503005552 21 18 6.4 9.7 0.00 0.25 0.00 53 1016.9
20260503005451 21 18 6.4 9.7 0.00 0.28 0.00 53 1017.0
20260503005350 21 0 6.4 9.7 0.00 0.28 0.00 53 1016.9
20260503005246 21 32 6.4 9.7 0.00 0.28 0.00 53 1016.9
20260503005142 21 13 4.8 8.0 0.00 0.30 0.00 53 1016.9
20260503005042 21 34 4.8 8.0 0.00 0.30 0.00 53 1016.9
20260503004941 21 32 4.8 8.0 0.00 0.30 0.00 53 1016.9
20260503004842 21 27 3.2 9.7 0.00 0.33 0.00 53 1016.8
20260503004741 21 27 4.8 11.3 0.00 0.33 0.00 53 1016.8
20260503004642 21 27 4.8 11.3 0.00 0.36 0.00 52 1016.8
20260503004541 22 27 4.8 11.3 0.00 0.36 0.00 52 1016.9
20260503004440 22 16 4.8 11.3 0.00 0.36 0.00 52 1016.8
20260503004341 22 14 4.8 11.3 0.00 0.36 0.00 52 1016.8
20260503004241 22 21 4.8 11.3 0.00 0.38 0.00 52 1016.8
20260503004142 22 18 4.8 16.1 0.00 0.38 0.00 51 1016.8
20260503004040 22 21 6.4 19.3 0.00 0.41 0.00 51 1016.7
20260503003940 22 0 6.4 19.3 0.00 0.41 0.00 51 1016.7
20260503003841 22 14 6.4 19.3 0.00 0.43 0.00 51 1016.7
20260503003740 22 13 6.4 19.3 0.00 0.43 0.00 51 1016.7
20260503003640 22 3 6.4 19.3 0.00 0.43 0.00 51 1016.7
20260503003540 22 10 6.4 19.3 0.00 0.43 0.00 51 1016.7
20260503003441 22 0 6.4 19.3 0.00 0.46 0.00 51 1016.7
20260503003341 22 4 9.7 19.3 0.00 0.46 0.00 51 1016.7
20260503003240 22 13 11.3 19.3 0.00 0.46 0.00 50 1016.6
20260503003142 22 16 9.7 19.3 0.00 0.46 0.00 51 1016.7
20260503003040 22 7 8.0 16.1 0.00 0.46 0.00 51 1016.6
20260503002940 22 190 8.0 17.7 0.00 0.46 0.00 51 1016.7
20260503002841 22 13 6.4 17.7 0.00 0.48 0.00 51 1016.6
20260503002741 22 13 4.8 17.7 0.00 0.48 0.00 51 1016.5
20260503002641 22 14 4.8 17.7 0.00 0.48 0.00 51 1016.6
20260503002541 22 16 6.4 17.7 0.00 0.48 0.00 50 1016.7
20260503002441 22 0 9.7 17.7 0.00 0.48 0.00 50 1016.6
20260503002340 22 32 11.3 17.7 0.00 0.48 0.00 49 1016.6
20260503002239 22 28 9.7 17.7 0.00 0.51 0.00 49 1016.6
20260503002140 22 16 11.3 17.7 0.00 0.51 0.00 49 1016.6
20260503002042 22 31 12.9 17.7 0.00 0.51 0.00 49 1016.6
20260503001940 22 28 9.7 16.1 0.00 0.51 0.00 49 1016.6
20260503001841 22 34 8.0 14.5 0.00 0.51 0.00 49 1016.6
20260503001741 22 27 6.4 16.1 0.00 0.51 0.00 49 1016.6
20260503001641 22 0 8.0 16.1 0.00 0.51 0.00 49 1016.6
20260503001541 22 20 9.7 16.1 0.00 0.51 0.00 49 1016.6
20260503001440 22 10 9.7 16.1 0.00 0.51 0.00 49 1016.6
20260503001340 23 44 8.0 20.9 0.00 0.53 0.00 49 1016.5
20260503001239 23 45 6.4 22.5 0.00 0.53 0.00 49 1016.5
20260503001140 23 7 4.8 22.5 0.00 0.53 0.00 49 1016.5
20260503001042 23 18 6.4 22.5 0.00 0.53 0.00 49 1016.5
20260503000940 23 0 8.0 22.5 0.00 0.53 0.00 48 1016.5
20260503000839 23 17 9.7 22.5 0.00 0.56 0.00 48 1016.5
20260503000739 23 17 8.0 22.5 0.00 0.56 0.00 48 1016.4
20260503000640 23 0 8.0 22.5 0.00 0.56 0.00 48 1016.4
20260503000539 23 18 11.3 22.5 0.00 0.58 0.00 48 1016.4
20260503000440 23 16 16.1 22.5 0.00 0.58 0.00 47 1016.4
20260503000341 23 32 12.9 22.5 0.00 0.58 0.00 48 1016.5
20260503000240 23 38 8.0 14.5 0.00 0.58 0.00 49 1016.4
20260503000140 23 14 8.0 14.5 0.00 0.58 0.00 49 1016.4
20260503000041 23 28 6.4 14.5 0.00 0.58 0.00 49 1016.4
20260502235940 23 28 6.4 14.5 0.00 0.61 0.00 49 1016.4
20260502235839 23 35 8.0 17.7 0.00 0.61 0.00 48 1016.3
20260502235739 23 38 9.7 17.7 0.00 0.61 0.00 48 1016.3
20260502235641 23 30 8.0 17.7 0.00 0.61 0.00 49 1016.4
20260502235540 23 13 6.4 19.3 0.00 0.61 0.00 48 1016.4
20260502235439 23 44 4.8 19.3 0.00 0.61 0.00 49 1016.3
20260502235339 23 18 8.0 19.3 0.00 0.61 0.00 48 1016.3
20260502235240 23 20 9.7 19.3 0.00 0.61 0.00 48 1016.4
20260502235140 23 39 9.7 19.3 0.00 0.61 0.00 48 1016.4
20260502235040 23 41 9.7 19.3 0.00 0.61 0.00 47 1016.3
20260502234940 23 35 9.7 19.3 0.00 0.61 0.00 47 1016.3
20260502234839 23 21 9.7 19.3 0.00 0.61 0.00 48 1016.4
20260502234739 23 0 11.3 19.3 0.00 0.61 0.00 47 1016.3
20260502234639 23 45 12.9 19.3 0.00 0.61 0.00 46 1016.4
20260502234540 23 44 9.7 19.3 0.00 0.61 0.00 46 1016.4
20260502234439 23 0 9.7 19.3 0.00 0.61 0.00 46 1016.3
20260502234339 23 0 9.7 19.3 0.00 0.61 0.00 46 1016.3
20260502234241 23 31 8.0 19.3 0.00 0.61 0.00 47 1016.4
20260502234139 23 39 9.7 19.3 0.00 0.61 0.00 47 1016.3
20260502234038 23 357 9.7 19.3 0.00 0.61 0.00 47 1016.4
20260502233940 23 25 9.7 19.3 0.00 0.61 0.00 46 1016.3
20260502233839 23 327 9.7 17.7 0.00 0.61 0.00 46 1016.3
20260502233740 23 344 8.0 16.1 0.00 0.64 0.00 47 1016.3
20260502233639 23 0 8.0 16.1 0.00 0.64 0.00 47 1016.3
20260502233541 23 331 9.7 16.1 0.00 0.64 0.00 46 1016.3
20260502233439 23 49 9.7 16.1 0.00 0.64 0.00 46 1016.3
20260502233338 23 1 8.0 16.1 0.00 0.64 0.00 47 1016.3
20260502233239 23 0 8.0 16.1 0.00 0.66 0.00 47 1016.2
20260502233139 23 0 8.0 16.1 0.00 0.66 0.00 47 1016.3
20260502233038 23 0 8.0 16.1 0.00 0.66 0.00 46 1016.3
20260502232940 23 350 8.0 14.5 0.00 0.66 0.00 46 1016.3
20260502232839 23 10 9.7 16.1 0.00 0.69 0.00 46 1016.3
20260502232740 23 28 8.0 16.1 0.00 0.79 0.00 46 1016.4
20260502232638 23 7 8.0 19.3 0.00 0.79 0.00 46 1016.4
20260502232541 23 24 8.0 24.1 0.00 0.79 0.00 46 1016.4
20260502232438 23 0 6.4 24.1 0.00 0.79 0.00 46 1016.4
20260502232338 23 0 6.4 24.1 0.00 0.79 0.00 46 1016.4
20260502232239 23 345 6.4 24.1 0.00 0.81 0.00 46 1016.4
20260502232140 23 23 6.4 24.1 0.00 0.81 0.00 46 1016.3
20260502232038 23 0 9.7 24.1 0.00 0.84 0.00 46 1016.3
20260502231932 23 32 9.7 24.1 0.00 0.86 0.00 46 1016.3
20260502231832 23 25 12.9 24.1 0.00 0.86 0.00 46 1016.3
20260502231731 23 30 11.3 24.1 0.00 0.86 0.00 45 1016.3
20260502231632 24 41 6.4 22.5 0.00 0.89 0.00 46 1016.3
20260502231533 23 14 6.4 22.5 0.00 0.89 0.00 46 1016.3
20260502231431 23 23 9.7 22.5 0.00 0.89 0.00 46 1016.3
20260502231331 24 25 9.7 22.5 0.00 0.91 0.00 46 1016.3
20260502231232 24 52 8.0 22.5 0.00 0.91 0.00 46 1016.3
20260502231131 24 351 11.3 22.5 0.00 0.91 0.00 46 1016.2
20260502231032 24 39 12.9 22.5 0.00 0.91 0.00 46 1016.2
20260502230932 24 47 8.0 22.5 0.00 0.91 0.00 46 1016.2
20260502230832 24 38 8.0 20.9 0.00 0.91 0.00 46 1016.2
20260502230732 24 6 9.7 20.9 0.00 0.91 0.00 46 1016.2
20260502230633 23 347 8.0 20.9 0.00 0.91 0.00 46 1016.2
20260502230531 23 0 9.7 24.1 0.00 0.91 0.00 46 1016.3
20260502230431 23 11 12.9 24.1 0.00 0.91 0.00 45 1016.2
20260502230332 23 51 14.5 24.1 0.00 0.91 0.00 45 1016.3
20260502230232 23 47 14.5 24.1 0.00 0.91 0.00 46 1016.2
20260502230131 23 30 12.9 24.1 0.00 0.91 0.00 45 1016.3
20260502230032 23 47 12.9 24.1 0.00 0.91 0.00 45 1016.2
20260502225932 23 39 11.3 24.1 0.00 0.91 0.00 44 1016.2
20260502225831 24 37 12.9 24.1 0.00 0.91 0.00 45 1016.2
20260502225731 24 16 16.1 24.1 0.00 0.91 0.00 44 1016.3
20260502225633 24 358 11.3 24.1 0.00 0.91 0.00 45 1016.2
20260502225532 24 44 8.0 20.9 0.00 0.91 0.00 44 1016.2
20260502225432 24 338 9.7 20.9 0.00 0.91 0.00 45 1016.2
20260502225331 24 7 9.7 20.9 0.00 0.91 0.00 45 1016.2
20260502225231 24 351 9.7 20.9 0.00 0.91 0.00 44 1016.2
20260502225131 24 6 11.3 20.9 0.00 0.91 0.00 44 1016.2
20260502225031 24 21 11.3 20.9 0.00 0.91 0.00 45 1016.2
20260502224930 24 17 11.3 19.3 0.00 0.91 0.00 46 1016.1
20260502224827 24 30 9.7 19.3 0.00 0.91 0.00 45 1016.1
20260502224725 24 4 9.7 19.3 0.00 0.91 0.00 44 1016.1
20260502224624 24 337 8.0 19.3 0.00 0.91 0.00 44 1016.1
20260502224522 24 3 8.0 19.3 0.00 0.91 0.00 45 1016.2
20260502224421 24 324 9.7 19.3 0.00 0.91 0.00 45 1016.2
20260502224319 24 41 8.0 19.3 0.00 0.91 0.00 44 1016.2
20260502224218 24 30 8.0 22.5 0.00 0.91 0.00 44 1016.2
20260502224116 24 0 9.7 22.5 0.00 0.91 0.00 45 1016.1
20260502224014 24 355 11.3 22.5 0.00 0.91 0.00 46 1016.1
20260502223916 24 14 12.9 22.5 0.00 0.91 0.00 45 1016.1
20260502223813 24 348 11.3 22.5 0.00 0.91 0.00 45 1016.2
20260502223710 24 16 9.7 22.5 0.00 0.91 0.00 45 1016.2
20260502223609 24 38 8.0 22.5 0.00 0.91 0.00 45 1016.2
20260502223508 24 54 6.4 22.5 0.00 0.91 0.00 45 1016.2
20260502223406 24 25 11.3 24.1 0.00 0.91 0.00 45 1016.2
20260502223306 24 0 11.3 24.1 0.00 0.91 0.00 45 1016.3
20260502223202 24 13 9.7 27.4 0.00 0.91 0.00 45 1016.3
20260502223103 24 8 9.7 27.4 0.00 0.91 0.00 45 1016.3
20260502223003 24 4 11.3 27.4 0.00 0.91 0.00 45 1016.2
20260502222902 24 20 12.9 27.4 0.00 0.91 0.00 45 1016.3
20260502222801 24 7 14.5 27.4 0.00 0.91 0.00 45 1016.3
20260502222702 24 28 16.1 27.4 0.00 0.91 0.00 45 1016.3
20260502222603 24 17 17.7 27.4 0.00 0.91 0.00 44 1016.3
20260502222502 24 37 17.7 27.4 0.00 0.91 0.00 44 1016.4
20260502222402 25 24 17.7 27.4 0.00 0.91 0.00 44 1016.3
20260502222305 25 32 16.1 27.4 0.00 0.91 0.00 44 1016.4
20260502222202 25 23 11.3 24.1 0.00 0.91 0.00 44 1016.3
20260502222103 25 39 9.7 24.1 0.00 0.91 0.00 43 1016.3
20260502222002 25 14 8.0 14.5 0.00 0.91 0.00 43 1016.4
20260502221903 25 6 4.8 14.5 0.00 0.91 0.00 44 1016.4
20260502221803 25 0 6.4 16.1 0.00 0.91 0.00 45 1016.4
20260502221703 25 62 4.8 16.1 0.00 0.91 0.00 45 1016.4
20260502221603 25 17 3.2 16.1 0.00 0.94 0.00 44 1016.3
20260502221504 25 14 4.8 16.1 0.00 0.94 0.00 45 1016.3
20260502221402 25 0 4.8 16.1 0.00 0.94 0.00 46 1016.4
20260502221300 25 23 6.4 16.1 0.00 0.94 0.00 46 1016.4
20260502221200 24 343 9.7 20.9 0.00 0.94 0.00 46 1016.5
20260502221100 24 7 8.0 22.5 0.00 0.94 0.00 46 1016.4
20260502220959 25 321 9.7 22.5 0.00 0.94 0.00 46 1016.4
20260502220857 25 11 11.3 22.5 0.00 0.94 0.00 46 1016.4
20260502220757 25 14 8.0 22.5 0.00 0.94 0.00 46 1016.4
20260502220654 24 0 6.4 22.5 0.00 0.94 0.00 46 1016.4
20260502220553 24 13 6.4 22.5 0.00 0.94 0.00 46 1016.3
20260502220452 24 329 8.0 22.5 0.00 0.94 0.00 46 1016.3
20260502220350 24 355 12.9 22.5 0.00 0.94 0.00 45 1016.4
20260502220249 24 333 16.1 22.5 0.00 0.94 0.00 45 1016.4
20260502220146 24 317 14.5 22.5 0.00 0.94 0.00 45 1016.4
20260502220046 25 358 12.9 22.5 0.00 0.94 0.00 45 1016.4
20260502215946 25 316 14.5 19.3 0.00 0.94 0.00 45 1016.3
20260502215846 24 0 12.9 24.1 0.00 0.94 0.00 44 1016.4
20260502215743 25 38 9.7 24.1 0.00 0.94 0.00 46 1016.3
20260502215641 25 17 8.0 24.1 0.00 0.94 0.00 46 1016.3
20260502215540 24 24 8.0 24.1 0.00 0.94 0.00 45 1016.4
20260502215438 24 319 9.7 24.1 0.00 0.94 0.00 46 1016.4
20260502215337 24 355 14.5 24.1 0.00 0.94 0.00 45 1016.4
20260502215238 24 17 12.9 24.1 0.00 0.94 0.00 45 1016.3
20260502215136 24 13 12.9 24.1 0.00 0.97 0.00 44 1016.4
20260502215036 24 21 16.1 24.1 0.00 0.97 0.00 44 1016.4
20260502214937 25 355 16.1 24.1 0.00 0.97 0.00 44 1016.4
20260502214838 25 3 9.7 24.1 0.00 0.97 0.00 45 1016.4
20260502214737 24 20 6.4 24.1 0.00 0.97 0.00 45 1016.4
20260502214637 24 7 6.4 24.1 0.00 0.99 0.00 45 1016.5
20260502214536 24 37 9.7 24.1 0.00 0.99 0.00 45 1016.5
20260502214437 25 3 12.9 24.1 0.00 0.99 0.00 44 1016.4
20260502214337 25 34 12.9 24.1 0.00 1.02 0.00 45 1016.5
20260502214236 25 353 12.9 24.1 0.00 1.02 0.00 44 1016.5
20260502214137 25 0 12.9 24.1 0.00 1.02 0.00 44 1016.5
20260502214036 25 14 8.0 19.3 0.00 1.02 0.00 44 1016.5
20260502213936 25 353 3.2 11.3 0.00 1.04 0.00 43 1016.5
20260502213836 24 11 4.8 16.1 0.00 1.04 0.00 44 1016.5
20260502213737 24 23 6.4 22.5 0.00 1.07 0.00 43 1016.4
20260502213636 24 24 6.4 22.5 0.00 1.07 0.00 43 1016.5
20260502213536 25 0 6.4 22.5 0.00 1.07 0.00 43 1016.5
20260502213437 25 34 4.8 22.5 0.00 1.09 0.00 44 1016.5
20260502213338 24 299 4.8 22.5 0.00 1.09 0.00 44 1016.5
20260502213236 24 296 8.0 22.5 0.00 1.12 0.00 44 1016.5
20260502213136 25 307 8.0 22.5 0.00 1.12 0.00 44 1016.6
20260502213038 25 351 9.7 22.5 0.00 1.12 0.00 44 1016.5
20260502212939 25 327 14.5 22.5 0.00 1.12 0.00 43 1016.5
20260502212835 25 357 11.3 22.5 0.00 1.14 0.00 44 1016.5
20260502212736 25 357 4.8 19.3 0.00 1.14 0.00 46 1016.6
20260502212636 25 320 4.8 19.3 0.00 1.14 0.00 46 1016.5
20260502212535 25 331 4.8 19.3 0.00 1.14 0.00 46 1016.5
20260502212437 25 17 6.4 19.3 0.00 1.14 0.00 45 1016.6
20260502212337 25 42 8.0 19.3 0.00 1.14 0.00 47 1016.5
20260502212237 25 0 9.7 19.3 0.00 1.14 0.00 45 1016.5
20260502212135 25 4 11.3 19.3 0.00 1.14 0.00 45 1016.5
20260502212035 25 11 9.7 19.3 0.00 1.14 0.00 45 1016.5
20260502211936 25 345 11.3 19.3 0.00 1.14 0.00 46 1016.5
20260502211836 25 355 9.7 17.7 0.00 1.14 0.00 45 1016.5
20260502211738 25 343 4.8 20.9 0.00 1.17 0.00 45 1016.5
20260502211636 24 28 4.8 20.9 0.00 1.17 0.00 45 1016.5
20260502211536 24 307 6.4 20.9 0.00 1.17 0.00 45 1016.5
20260502211435 24 283 6.4 20.9 0.00 1.17 0.00 45 1016.5
20260502211338 25 305 6.4 22.5 0.00 1.17 0.00 45 1016.6
20260502211236 25 319 6.4 22.5 0.00 1.17 0.00 45 1016.6
20260502211136 25 338 6.4 22.5 0.00 1.19 0.00 44 1016.6
20260502211035 24 327 8.0 22.5 0.00 1.19 0.00 45 1016.6
20260502210937 24 336 11.3 22.5 0.00 1.19 0.00 45 1016.7
20260502210835 24 331 14.5 22.5 0.00 1.19 0.00 45 1016.7
20260502210735 24 341 12.9 22.5 0.00 1.22 0.00 46 1016.6
20260502210636 24 16 11.3 22.5 0.00 1.22 0.00 45 1016.7
20260502210536 25 14 11.3 22.5 0.00 1.22 0.00 46 1016.7
20260502210436 25 7 12.9 22.5 0.00 1.22 0.00 46 1016.7
20260502210336 24 21 11.3 22.5 0.00 1.22 0.00 46 1016.7
20260502210236 24 348 9.7 22.5 0.00 1.22 0.00 45 1016.7
20260502210135 24 23 12.9 22.5 0.00 1.22 0.00 44 1016.7
20260502210035 25 8 12.9 22.5 0.00 1.22 0.00 46 1016.6
20260502205936 25 14 9.7 20.9 0.00 1.24 0.00 46 1016.7
20260502205835 25 353 6.4 20.9 0.00 1.24 0.00 46 1016.7
20260502205735 25 63 4.8 20.9 0.00 1.24 0.00 44 1016.6
20260502205636 25 0 8.0 20.9 0.00 1.27 0.00 45 1016.7
20260502205536 25 337 11.3 20.9 0.00 1.27 0.00 44 1016.7
20260502205435 25 343 6.4 20.9 0.00 1.27 0.00 45 1016.7
20260502205335 25 351 6.4 22.5 0.00 1.30 0.00 45 1016.7
20260502205237 25 45 8.0 22.5 0.00 1.30 0.00 45 1016.7
20260502205135 25 11 9.7 22.5 0.00 1.30 0.00 45 1016.6
20260502205036 25 8 9.7 22.5 0.00 1.32 0.00 45 1016.7
20260502204937 24 324 8.0 22.5 0.00 1.32 0.00 44 1016.6
20260502204836 24 344 9.7 22.5 0.00 1.35 0.00 43 1016.7
20260502204735 24 24 12.9 22.5 0.00 1.35 0.00 43 1016.7
20260502204635 24 35 12.9 22.5 0.00 1.37 0.00 44 1016.8
20260502204538 24 330 14.5 22.5 0.00 1.37 0.00 44 1016.7
20260502204435 24 32 12.9 22.5 0.00 1.37 0.00 43 1016.7
20260502204335 25 7 14.5 22.5 0.00 1.37 0.00 43 1016.8
20260502204237 25 355 12.9 22.5 0.00 1.40 0.00 44 1016.8
20260502204135 25 24 11.3 22.5 0.00 1.40 0.00 43 1016.8
20260502204035 25 347 12.9 22.5 0.00 1.42 0.00 43 1016.8
20260502203935 25 49 12.9 22.5 0.00 1.42 0.00 43 1016.7
20260502203838 25 21 11.3 22.5 0.00 1.45 0.00 45 1016.8
20260502203735 25 18 11.3 22.5 0.00 1.47 0.00 45 1016.8
20260502203635 25 350 9.7 22.5 0.00 1.47 0.00 45 1016.8
20260502203536 25 344 11.3 22.5 0.00 1.47 0.00 44 1016.8
20260502203435 25 35 9.7 22.5 0.00 1.50 0.00 44 1016.9
20260502203335 25 0 9.7 19.3 0.00 1.50 0.00 44 1016.8
20260502203236 25 324 11.3 20.9 0.00 1.50 0.00 46 1016.9
20260502203136 24 37 9.7 20.9 0.00 1.50 0.00 46 1016.8
20260502203035 24 23 11.3 20.9 0.00 1.52 0.00 46 1016.9
20260502202935 24 23 9.7 20.9 0.00 1.55 0.00 46 1016.9
20260502202836 24 0 6.4 20.9 0.00 1.55 0.00 46 1016.9
20260502202735 24 31 6.4 20.9 0.00 1.55 0.00 46 1016.8
20260502202634 23 18 8.0 20.9 0.00 1.55 0.00 45 1016.8
20260502202536 24 10 11.3 20.9 0.00 1.55 0.00 45 1016.9
20260502202435 24 21 12.9 20.9 0.00 1.55 0.00 45 1017.0
20260502202334 24 14 14.5 20.9 0.00 1.55 0.00 45 1017.0
20260502202235 24 10 9.7 24.1 0.00 1.55 0.00 45 1016.9
20260502202136 24 0 6.4 27.4 0.00 1.57 0.00 44 1016.9
20260502202034 24 99 8.0 27.4 0.00 1.57 0.00 43 1017.0
20260502201935 24 14 11.3 27.4 0.00 1.57 0.00 44 1017.0
20260502201835 24 4 12.9 27.4 0.00 1.57 0.00 43 1017.0
20260502201735 24 334 12.9 27.4 0.00 1.60 0.00 44 1017.0
20260502201634 24 353 12.9 27.4 0.00 1.60 0.00 44 1016.9
20260502201535 24 0 9.7 27.4 0.00 1.60 0.00 46 1017.0
20260502201435 24 35 11.3 27.4 0.00 1.60 0.00 46 1017.0
20260502201334 24 24 14.5 27.4 0.00 1.63 0.00 47 1017.0
20260502201234 24 343 12.9 27.4 0.00 1.63 0.00 46 1017.0
20260502201135 23 51 11.3 22.5 0.00 1.63 0.00 47 1016.9
20260502201034 23 338 11.3 22.5 0.00 1.63 0.00 46 1016.9